Weather History for Oxnard, CA

Change the Weather History Date:

Tuesday, October 1, 2013

  Actual Average Record
Temperature  
Mean Temperature 62 °F -  
Max Temperature 69 °F 75 °F 95 °F (1965)
Min Temperature 54 °F 57 °F 46 °F (1950)
Degree Days  
Heating Degree Days 4    
Growing Degree Days 12 (Base 50)    
Moisture  
Dew Point 55 °F    
Average Humidity 82    
Maximum Humidity 93    
Minimum Humidity 65    
Precipitation  
Precipitation 0.00 in - - ()
Sea Level Pressure  
Sea Level Pressure 29.90 in    
Wind  
Wind Speed 4 mph (West)    
Max Wind Speed 12 mph    
Max Gust Speed -    
Visibility 8 miles    
Events      
Averages and records for this station are not official NWS values.
T = Trace of Precipitation, MM = Missing Value Source: NWS Daily Summary

Daily Weather History Graph

Daily Weather History Graph

Search for Another Location

Airport:

Trip Planner

Search our weather history database for the weather conditions in past years. The results will help you decide how hot, cold, wet, or windy it might be!

Date:

Astronomy

Oct. 01, 2013 Rise Set
Actual Time 6:51 AM PDT 6:40 PM PDT
Civil Twilight 6:26 AM PDT 7:05 PM PDT
Nautical Twilight 5:57 AM PDT 7:34 PM PDT
Astronomical Twilight 5:28 AM PDT 8:03 PM PDT
Moon 3:38 AM PDT (10/1) 4:40 PM PDT (10/1)
Length of Visible Light 12h 38m
Length of Day
11h 48m
Waning Crescent, 11% of the Moon is Illuminated
Oct 1
Waning Crescent
Oct 4
New
Oct 11
First Quarter
Oct 18
Full
Oct 26
Last Quarter

Hourly Weather History & Observations

Time (PDT) Temp. Dew Point Humidity Pressure Visibility Wind Dir Wind Speed Gust Speed Precip Events Conditions
12:51 AM 57.9 °F 55.0 °F 90% 29.87 in 8.0 mi East 3.5 mph - N/A   Clear
1:51 AM 55.9 °F 54.0 °F 93% 29.88 in 8.0 mi ENE 3.5 mph - N/A   Clear
2:51 AM 55.9 °F 53.1 °F 90% 29.88 in 8.0 mi Calm Calm - N/A   Clear
3:51 AM 54.0 °F 51.1 °F 90% 29.87 in 10.0 mi Calm Calm - N/A   Clear
4:51 AM 54.0 °F 50.0 °F 86% 29.88 in 10.0 mi Calm Calm - N/A   Clear
5:51 AM 54.0 °F 48.9 °F 83% 29.89 in 6.0 mi Calm Calm - N/A   Haze
6:51 AM 54.0 °F 48.9 °F 83% 29.90 in 9.0 mi East 3.5 mph - N/A   Clear
7:51 AM 57.0 °F 51.1 °F 81% 29.92 in 10.0 mi Calm Calm - N/A   Clear
8:51 AM 63.0 °F 51.1 °F 65% 29.93 in 10.0 mi Calm Calm - N/A   Clear
9:51 AM 66.0 °F 57.0 °F 73% 29.93 in 8.0 mi WNW 4.6 mph - N/A   Clear
10:51 AM 66.9 °F 59.0 °F 76% 29.94 in 9.0 mi West 8.1 mph - N/A   Clear
11:51 AM 66.9 °F 59.0 °F 76% 29.94 in 9.0 mi WSW 8.1 mph - N/A   Clear
12:51 PM 69.1 °F 59.0 °F 70% 29.93 in 10.0 mi WSW 9.2 mph - N/A   Clear
1:51 PM 68.0 °F 59.0 °F 73% 29.91 in 9.0 mi WSW 8.1 mph - N/A   Clear
2:51 PM 68.0 °F 57.0 °F 68% 29.89 in 10.0 mi West 9.2 mph - N/A   Clear
3:51 PM 66.9 °F 57.9 °F 73% 29.88 in 9.0 mi West 11.5 mph - N/A   Clear
4:51 PM 64.0 °F 57.9 °F 80% 29.88 in 7.0 mi West 10.4 mph - N/A   Clear
5:51 PM 63.0 °F 57.0 °F 81% 29.88 in 6.0 mi West 8.1 mph - N/A   Haze
6:51 PM 60.1 °F 57.0 °F 90% 29.87 in 6.0 mi West 3.5 mph - N/A   Clear
7:51 PM 59.0 °F 57.0 °F 93% 29.88 in 6.0 mi WNW 3.5 mph - N/A   Clear
8:51 PM 59.0 °F 57.0 °F 93% 29.89 in 6.0 mi West 3.5 mph - N/A   Clear
9:51 PM 59.0 °F 57.0 °F 93% 29.90 in 6.0 mi West 3.5 mph - N/A   Clear
11:51 PM 59.0 °F 55.9 °F 90% 29.90 in 6.0 mi Calm Calm - N/A   Clear